User: anonymous   Login
Location: Caltech
(34.1382°N, 118.1253°W)
Time: 00:32:17
(UTC-07:00)
Language:

Oscar 19 - Orbit

View from above orbital plane
View from above orbital plane
View from above satellite
View from above satellite

Ground track
Ground track

The orbit data is extracted from the following two-line orbital elements,

1 20442U 90005G   17290.41663886 +.00000015 +00000-0 +21662-4 0  9994
2 20442 098.5835 225.7288 0012367 142.3573 217.8478 14.32873860449062
Epoch (UTC): 17 October 2017 09:59:57
Eccentricity: 0.0012367
inclination: 98.5835°
perigee height: 773 km
apogee height: 791 km
right ascension of ascending node: 225.7288°
argument of perigee: 142.3573°
revolutions per day: 14.32873860
mean anomaly at epoch: 217.8478°
orbit number at epoch: 44906

The dashed part of the orbit path shows where the satellite is in the earth's shadow,  

DLR